www.pogodaiklimat.ru

Погода и климат >> Архив погоды >> Фиджи >> Вануа Мбалаву


ПОГОДА на Вануа Мбалаву

  • Прогноз погоды на Вануа Мбалаву
  • Монитор погоды на Вануа Мбалаву

АРХИВ ПОГОДЫ на Вануа Мбалаву

Время (UTC), дата Ветер
(напр.,м/с)
 
Видим.   Явления Облачность Т
(С)
Тd
(С)
f
(%)
Тe
(С)
Тes
(С)
Комфортность P
(гПа)
Po
(гПа)
Тmin
(С)
Tmax
(С)
R
(мм)
R24
(мм)
S
(см)
03 10.01 СЗ 5 н/о н/о +29.4 +27.0 87 +46 +46 опасность
перегрева
1010.8 1004.8
06 10.01 ЮВ 5 н/о н/о +27.6 +26.6 94 +42 +42 опасность
перегрева
1012.0 1006.0 1
09 10.01 З 1 н/о н/о +26.6 +26.1 97 +40 +40 очень
душно
1013.6 1007.5
12 10.01 С 3 н/о н/о +26.4 +25.7 96 +39 +39 очень
душно
1014.0 1007.9 +32.8 24
15 10.01 СВ 3 н/о н/о +26.7 +25.9 95 +40 +40 очень
душно
1011.3 1005.3
18 10.01 В 3 н/о н/о +26.4 +25.7 96 +39 +39 очень
душно
1012.5 1006.5 2
21 10.01 В 5 н/о н/о +29.9 +26.6 83 +46 +46 опасность
перегрева
1013.4 1007.4
00 11.01 С 3 н/о н/о +31.6 +27.1 77 +50 +50 опасность
перегрева
1012.9 1007.0 +25.7
03 11.01 В 5 н/о н/о +30.9 +27.0 80 +49 +49 опасность
перегрева
1011.3 1005.3
06 11.01 В 5 н/о н/о +29.1 +26.8 87 +45 +45 опасность
перегрева
1011.9 1005.9
09 11.01 В 5 н/о н/о +28.4 +27.2 93 +45 +45 опасность
перегрева
1013.5 1007.5
12 11.01 В 4 н/о н/о +28.6 +27.2 92 +45 +45 опасность
перегрева
1013.0 1007.0 +32.9
15 11.01 В 4 н/о н/о +28.0 +26.8 93 +44 +44 опасность
перегрева
1011.0 1005.0
18 11.01 В 5 н/о н/о +28.4 +26.8 91 +44 +44 опасность
перегрева
1012.2 1006.2 0.5
21 11.01 В 5 н/о н/о +29.5 +27.3 88 +47 +47 опасность
перегрева
1012.4 1006.4
00 12.01 В 6 н/о н/о +31.4 +27.7 81 +51 +51 опасность
перегрева
1011.5 1005.6 +27.1
03 12.01 В 4 н/о н/о +30.5 +25.8 76 +45 +45 опасность
перегрева
1010.6 1004.6
06 12.01 В 2 н/о н/о +28.9 +26.9 89 +45 +45 опасность
перегрева
1011.3 1005.3
09 12.01 СВ 2 н/о н/о +28.5 +26.8 91 +45 +45 опасность
перегрева
1011.9 1005.9
12 12.01 СЗ 1 н/о н/о +27.8 +26.5 93 +43 +43 опасность
перегрева
1011.3 1005.3 +32.7
15 12.01 СЗ 2 н/о н/о +27.9 +26.9 94 +44 +44 опасность
перегрева
1009.6 1003.6
18 12.01 штиль 0 н/о н/о +27.6 +26.4 93 +42 +42 опасность
перегрева
1010.7 1004.7
21 12.01 ЮВ 4 н/о н/о +27.2 +26.1 94 +41 +41 опасность
перегрева
1010.9 1004.9
00 13.01 В 2 н/о н/о +29.3 +27.3 89 +47 +47 опасность
перегрева
1010.0 1004.0 +27.3 12
03 13.01 З 4 н/о н/о +31.5 +26.8 76 +49 +49 опасность
перегрева
1007.4 1001.5
06 13.01 ЮЗ 2 н/о н/о +31.5 +26.9 77 +49 +49 опасность
перегрева
1008.6 1002.7
09 13.01 ЮЗ 1 н/о н/о +28.9 +26.4 86 +44 +44 опасность
перегрева
1010.4 1004.4
12 13.01 В 2 н/о н/о +28.1 +26.7 92 +44 +44 опасность
перегрева
1010.1 1004.1 +32.2
15 13.01 В 2 н/о н/о +27.7 +26.2 92 +42 +42 опасность
перегрева
1008.3 1002.3
18 13.01 СВ 2 н/о н/о +27.8 +26.3 92 +42 +42 опасность
перегрева
1010.0 1004.0
21 13.01 З 2 н/о н/о +30.3 +26.7 81 +47 +47 опасность
перегрева
1010.5 1004.5
00 14.01 С 2 н/о н/о +29.7 +27.1 86 +47 +47 опасность
перегрева
1009.4 1003.4 +26.4 0.5
03 14.01 С 2 н/о н/о +30.8 +27.1 81 +49 +49 опасность
перегрева
1008.2 1002.3

 

Местоположение метеостанции Вануа Мбалаву (Фиджи): широта -17.25 долгота 178.92 высота над уровнем моря 5 м.

В архиве по умолчанию представлена погода на Вануа Мбалаву за последнюю неделю. Архивные данные за месяц целиком и за предыдущие месяцы, начиная с января 2011 года, Вы можете получить, выбрав интересующий диапазон дат из раскрывающегося списка и нажав кнопку "Ввод!".


*Определитесь, кто Вы:
робот инопланетянин человек

Внимание! Время в таблицах - всемирное. Для получения местного времени необходимо прибавить поправку, которая равна 12 ч.

Смотрите также архив погоды в соседних городах и на ближайших метеорологических станциях:

Погода в Нэбаууолу (Фиджи) (36 км)
Погода в Ракираки (Фиджи) (76 км)
Погода в Наусори (Фиджи) (97 км)
Погода в Ламбасе (Фиджи) (106 км)
Погода в Сигатоке (Фиджи) (114 км)
Погода в Ясава-и-Рара (Фиджи) (155 км)
Погода в Нанди (Фиджи) (166 км)
Погода на Вануа Леву (Фиджи) (168 км)
Погода на Острове Вива (Фиджи) (215 км)
Погода в Вьюнисея (Фиджи) (216 км)

Пояснения к столбцам:

Ветер - указаны скорость ветра в м/с - средняя за 10 мин, порывы в срок и между сроками (в фигурных скобках) и направление, откуда дует ветер: С - северный, СВ - северо-восточный, В - восточный, ЮВ - юго-восточный, Ю - южный, ЮЗ - юго-западный, З - западный, СЗ - северо-западный.
Видимость - горизонтальная дальность видимости в метрах или километрах. При видимости от 1 до 10 км при отсутствии осадков обычно наблюдается дымка, при ухудшении видимости до 1 км и менее - туман. В сухую погоду видимость может ухудшаться дымом, пылью или мглою.
Явления - указаны атмосферные явления, наблюдавшиеся в срок или в последний час перед сроком; фигурными скобками обозначены явления, наблюдавшиеся между сроками (за 1-3 часа до срока); квадратными скобками обозначены град или гололедные отложения с указанием их диаметра в мм.
Облачность - указаны через наклонную черту общая и нижняя облачность в баллах и высота нижней границы облаков в метрах; квадратными скобками обозначены формы облаков: Ci - перистые, Cs - перисто-слоистые, Cc - перисто-кучевые, Ac - высококучевые, As - высокослоистые, Sc - слоисто-кучевые, Ns - слоисто-дождевые, Cu - кучевые, Cb - кучево-дождевые. Подробнее классификацию облаков см. в Атласе облаков (PDF).
T - Температура воздуха - температура, измеренная на высоте 2 м над землей.
Td - Температура точки росы - температура, при понижении до которой содержащийся в воздухе водяной пар достигнет насыщения.
f - Относительная влажность воздуха - влажноcть воздуха, измеренная на высоте 2 м над землей.
Te - Эффективная температура - температура, которую ощущает одетый по сезону человек в тени. Характеристика душности погоды. При расчете учитывается влияние влажности воздуха и скорости ветра на теплоощущения человека.
Tes - Эффективная температура на солнце - температура, которую ощущает человек, с поправкой на солнечный нагрев. Характеристика знойности погоды. Зависит от высоты солнца над горизонтом, облачности и скорости ветра. Ночью, в пасмурную погоду, а также при ветре 12 м/с и более поправка равна нулю.
P - Атмосферное давление - приведенное к уровню моря атмосферное давление.
Po - Атмосферное давление - измеренное на уровне метеостанции атмосферное давление.
Tmin - Минимальная температура - минимум температуры воздуха на высоте 2 м над землей.
Tmax - Максимальная температура - максимум температуры воздуха на высоте 2 м над землей.
R - Количество осадков - Количество выпавших осадков за период времени, мм. При наведении курсора мыши на число - период времени, за который выпало указанное количество осадков.
R24 - Количество осадков - Количество выпавших осадков за 24 часа, мм.
S - Снежный покров - Высота снежного покрова, см. При наведении курсора мыши на число - состояние снежного покрова и степень покрытия местности в баллах.